User: anonymous   Login
Location: St. Louis
(38.6270°N, 90.1994°W)
Time: 10:44:32
(UTC-05:00)
Language:

IRIDIUM 33 DEB - Orbit

View from above orbital plane
View from above orbital plane
View from above satellite
View from above satellite

Ground track
Ground track

The orbit data is extracted from the following two-line orbital elements,

1 33967U 97051CC  22274.09817505  .00025152  00000-0  32257-2 0  9998
2 33967  86.3727 132.6096 0026383 332.9980  26.9867 14.80892269722666
Epoch (UTC): 01 October 2022 02:21:22
Eccentricity: 0.0026383
inclination: 86.3727°
perigee height: 608 km
apogee height: 645 km
right ascension of ascending node: 132.6096°
argument of perigee: 332.9980°
revolutions per day: 14.80892269
mean anomaly at epoch: 26.9867°
orbit number at epoch: 72266

The dashed part of the orbit path shows where the satellite is in the earth's shadow,  

DLR